軌道要素
Epoch 2018 Dec. 28.0 TT = JDT 2458480.5
T 2019 Jan. 2.63009 TT MPCW
q 3.8932895 (2000.0) P Q
n 0.04819648 Peri. 162.50357 -0.17520123 -0.96794586
a 7.4781213 Node 297.26490 +0.87735187 -0.07056058
e 0.4793760 Incl. 11.68039 +0.44671940 -0.24104358
P 20.45
From 74 observations 2018 Dec. 10-2019 Mar. 21, mean residual 0".5.
|